Location: Brabourne
(51.1333°N, 1.0000°E)
Time: 11:11:10
(UTC+00:00)

ADEOS Rocket - Pass Details

Date: 31 October 2021
Orbit: 858 x 1307 km, 98.8° (Epoch: 26 November)

Event Time Altitude Azimuth Distance (km) Brightness Sun altitude
Exits shadow 22:44:50 10° 12° (NNE) 2,974 5.9 -51.7°
Drops below altitude 10° 22:44:58 10° 11° (N) 2,997 5.9 -51.7°
Sets 22:48:27 0° 352° (N) 3,857 6.7 -51.9°
